Flag for Canada Weather past 2 weeks in Happy Valley-Goose Bay, Newfoundland and Labrador, Canada

Now
34 °F

Passing clouds.


Feels Like: 28 °F
Forecast: 29 / 48 °F
Wind: 7 mph from Southwest

Location: Goose

Current Time: Oct 22, 2014 at 10:56:36 PM

Latest Report: Oct 22, 2014 at 10:00 PM


Visibility: 15 mi

Pressure: 30.37 "Hg

Humidity: 70%

Dew point: 25 °F

Location of Happy Valley-Goose BayLocation

Historic Weather in Happy Valley-Goose Bay — Graph

°F

Happy Valley-Goose Bay temperature yesterday

Maximum temperature yesterday: 41 °F (at 3:00 PM)
Minimum temperature yesterday: 34 °F (at 6:00 AM)
Average temperature yesterday: 37 °F

Past Weeks' High & Low Weather Summary

 TemperatureHumidityPressure
High64 °F (Oct 9, 2:00 PM)100% (Oct 15, 3:00 AM)30.49 "Hg (Oct 15, 3:00 AM)
Low25 °F (Oct 22, 5:00 AM)47% (Oct 9, 6:00 PM)29.08 "Hg (Oct 20, 4:00 PM)
Average43 °F77%29.83 "Hg
* Reported Oct 7 9:00 PM — Oct 22 9:00 PM, Happy Valley-Goose Bay, Weather by CustomWeather, © 2014

Note: Actual official high and low records may vary slightly from our data, if they occured in-between our weather recording intervals... More about our weather records

Advertising

Happy Valley-Goose Bay weather history for previous 24 hours

 ConditionsComfort  
Time TempWeatherWind HumidityBarometerVisibility
9:00 PM
Oct 22
36 °FPassing clouds.10 mph65%30.38 "Hg15 mi
8:00 PM36 °FPassing clouds.5 mph60%30.38 "Hg15 mi
7:00 PM39 °FPassing clouds.13 mph56%30.38 "Hg15 mi
6:00 PM39 °FPassing clouds.12 mph56%30.39 "Hg15 mi
5:00 PM43 °FPassing clouds.12 mph53%30.40 "Hg15 mi
4:00 PM43 °FPassing clouds.14 mph53%30.41 "Hg15 mi
3:00 PM41 °FPassing clouds.15 mph57%30.42 "Hg15 mi
2:00 PM41 °FPassing clouds.13 mph57%30.44 "Hg15 mi
1:00 PM39 °FPassing clouds.14 mph61%30.46 "Hg15 mi
12:00 PM36 °FScattered clouds.17 mph65%30.47 "Hg15 mi
11:00 AM34 °FBroken clouds.15 mph70%30.48 "Hg15 mi
10:00 AM32 °FBroken clouds.8 mph69%30.49 "Hg15 mi
9:00 AM28 °FPassing clouds.6 mph74%30.48 "Hg15 mi
8:00 AM25 °FPassing clouds.3 mph80%30.47 "Hg15 mi
7:00 AM25 °FPassing clouds.5 mph80%30.45 "Hg15 mi
6:00 AM25 °FPassing clouds.6 mph80%30.44 "Hg15 mi
5:00 AM25 °FPassing clouds.7 mph80%30.43 "Hg15 mi
4:00 AM27 °FClear.6 mph74%30.40 "Hg15 mi
3:00 AM27 °FPassing clouds.5 mph80%30.38 "Hg15 mi
2:00 AM28 °FPassing clouds.3 mph74%30.37 "Hg15 mi
1:00 AM28 °FPassing clouds.9 mph74%30.34 "Hg15 mi
12:00 AM32 °FPassing clouds.9 mph64%30.32 "Hg15 mi
11:00 PM
Oct 21
34 °FPassing clouds.5 mph70%30.29 "Hg15 mi
10:00 PM34 °FPassing clouds.5 mph70%30.27 "Hg15 mi
Weather by CustomWeather, © 2014

See weather overviewHow to use our weather pages